sat.trackr.live / text

‹ back to catalog

ONEWEB-0646

NORAD 55810 · 2023-029Q

PAYLOAD ACTIVE UNKNOWN

§ Identity

Operator
Country
UK
Launch date
2023-03-09
Launch site
AFETR
Launch vehicle
Mass (kg)
RCS (m²)

Purposes: comms

External: N2YO · Heavens-Above · Gunter

§ Orbital elements

Epoch: 2026-05-25T03:51:09.232128Z

Period
109.11 min
Inclination
87.9150°
Eccentricity
0.0001509
Mean motion
13.19725847 rev/d
Perigee alt
1,184.6 km
Apogee alt
1,186.9 km
Semi-major
7,563.9 km
B*
9.7133e-5
RAAN
309.5664°
Arg perigee
92.8091°
Mean anomaly
267.3214°
Rev number
15,585

§ Raw data

ONEWEB-06461 55810U 23029Q   26145.16052352  .00000052  00000+0  97133-4 0  99902 55810  87.9150 309.5664 0001509  92.8091 267.3214 13.19725847155854

JSON: /api/v1/satellites/55810 · /tle

For live sub-satellite position, see the globe view (requires WebGL).

§ Visibility from observer

Set your observer location to see the next 7 days of passes ≥ 10°. The values pass through the URL so the page stays shareable.

No JS? Fill the form by hand. The geolocation button needs JavaScript.